Location: Songkhla
(7.2000°N, 100.6000°E)
Time: 16:49:04
(UTC+07:00)

Tiangong - Visible Passes

Search period start: 10 April 2026 00:00
Search period end: 20 April 2026 00:00
Orbit: 378 x 384 km, 41.5° (Epoch: 10 April)

Date Brightness Start Highest point End Pass type
(mag) Time Alt. Az. Time Alt. Az. Time Alt. Az.
16 Apr 0.4 19:55:36 10° NNW 19:56:26 15° N 19:56:26 15° N visible
17 Apr 0.3 18:56:25 10° NNE 18:57:07 11° NE 18:57:49 10° NE visible
18 Apr -2.3 19:29:36 10° NW 19:32:42 70° NE 19:33:11 56° E visible
19 Apr 0.7 20:06:16 10° W 20:07:40 14° SW 20:07:40 14° SW visible
